TimeEST,TemperatureF,Dew PointF,Humidity,Sea Level PressureIn,VisibilityMPH,Wind Direction,Wind SpeedMPH,Gust SpeedMPH,PrecipitationIn,Events,Conditions,WindDirDegrees,DateUTC
12:15 AM,35.6,32.0,87,29.58,8.0,NW,5.8,-,N/A,,Overcast,310,2013-02-28 05:15:00
12:55 AM,35.6,32.0,87,29.59,10.0,WNW,6.9,-,N/A,,Overcast,290,2013-02-28 05:55:00
1:15 AM,35.6,30.2,81,29.59,10.0,WNW,5.8,-,N/A,,Overcast,290,2013-02-28 06:15:00
1:35 AM,35.6,30.2,81,29.59,10.0,West,3.5,-,N/A,,Overcast,270,2013-02-28 06:35:00
2:15 AM,33.8,30.2,87,29.59,10.0,WNW,3.5,-,N/A,,Overcast,300,2013-02-28 07:15:00
2:35 AM,35.6,30.2,81,29.59,10.0,Calm,Calm,-,N/A,,Overcast,0,2013-02-28 07:35:00
2:55 AM,33.8,30.2,87,29.59,10.0,WNW,3.5,-,N/A,,Overcast,300,2013-02-28 07:55:00
3:15 AM,33.8,30.2,87,29.59,10.0,NW,3.5,-,N/A,,Overcast,310,2013-02-28 08:15:00
3:35 AM,33.8,30.2,87,29.58,10.0,NW,4.6,-,N/A,,Scattered Clouds,320,2013-02-28 08:35:00
3:55 AM,33.8,30.2,87,29.58,10.0,NW,4.6,-,N/A,,Clear,310,2013-02-28 08:55:00
4:15 AM,33.8,30.2,87,29.59,10.0,Calm,Calm,-,N/A,,Mostly Cloudy,0,2013-02-28 09:15:00
4:55 AM,33.8,30.2,87,29.61,10.0,Calm,Calm,-,N/A,,Overcast,0,2013-02-28 09:55:00
5:35 AM,33.8,30.2,87,29.62,5.0,Calm,Calm,-,N/A,,Overcast,0,2013-02-28 10:35:00
5:55 AM,33.8,30.2,87,29.62,4.0,West,4.6,-,N/A,,Overcast,270,2013-02-28 10:55:00
6:15 AM,33.8,30.2,87,29.61,2.5,Calm,Calm,-,N/A,,Overcast,0,2013-02-28 11:15:00
6:35 AM,33.8,30.2,87,29.62,1.8,WSW,4.6,-,N/A,,Overcast,250,2013-02-28 11:35:00
6:55 AM,33.8,30.2,87,29.62,2.5,Calm,Calm,-,N/A,,Overcast,0,2013-02-28 11:55:00
7:15 AM,33.8,30.2,87,29.62,0.8,West,4.6,-,N/A,,Overcast,280,2013-02-28 12:15:00
7:35 AM,33.8,30.2,87,29.63,1.0,West,3.5,-,N/A,,Overcast,270,2013-02-28 12:35:00
7:55 AM,33.8,30.2,87,29.63,2.5,West,5.8,-,N/A,,Overcast,260,2013-02-28 12:55:00
8:15 AM,33.8,30.2,87,29.64,0.8,SW,3.5,-,N/A,,Overcast,220,2013-02-28 13:15:00
8:35 AM,33.8,30.2,87,29.65,2.0,WSW,3.5,-,N/A,,Overcast,240,2013-02-28 13:35:00
8:55 AM,33.8,30.2,87,29.64,2.0,West,3.5,-,N/A,,Overcast,260,2013-02-28 13:55:00
9:15 AM,33.8,32.0,93,29.63,9.0,NW,3.5,-,N/A,,Overcast,310,2013-02-28 14:15:00
9:35 AM,35.6,33.8,93,29.62,10.0,Calm,Calm,-,N/A,,Overcast,0,2013-02-28 14:35:00
10:15 AM,37.4,33.8,87,29.63,10.0,Calm,Calm,-,N/A,,Overcast,0,2013-02-28 15:15:00
10:35 AM,37.4,32.0,81,29.62,10.0,Calm,Calm,-,N/A,,Overcast,0,2013-02-28 15:35:00
10:55 AM,37.4,33.8,87,29.62,10.0,Calm,Calm,-,N/A,,Mostly Cloudy,0,2013-02-28 15:55:00
11:15 AM,39.2,33.8,81,29.61,10.0,Calm,Calm,-,N/A,,Scattered Clouds,0,2013-02-28 16:15:00
11:35 AM,39.2,33.8,81,29.61,10.0,Calm,Calm,-,N/A,,Mostly Cloudy,0,2013-02-28 16:35:00
11:55 AM,39.2,33.8,81,29.60,10.0,Calm,Calm,-,N/A,,Overcast,0,2013-02-28 16:55:00
12:15 PM,39.2,33.8,81,29.59,10.0,SE,3.5,-,N/A,,Overcast,130,2013-02-28 17:15:00
12:35 PM,41.0,33.8,76,29.58,10.0,Calm,Calm,-,N/A,,Overcast,0,2013-02-28 17:35:00
12:55 PM,41.0,35.6,81,29.58,10.0,Calm,Calm,-,N/A,,Overcast,0,2013-02-28 17:55:00
1:15 PM,42.8,35.6,76,29.58,10.0,Calm,Calm,-,N/A,,Overcast,0,2013-02-28 18:15:00
1:35 PM,42.8,35.6,76,29.56,10.0,Calm,Calm,-,N/A,,Overcast,0,2013-02-28 18:35:00
1:55 PM,42.8,35.6,76,29.56,10.0,Calm,Calm,-,N/A,,Mostly Cloudy,0,2013-02-28 18:55:00
2:15 PM,42.8,33.8,70,29.55,10.0,Calm,Calm,-,N/A,,Mostly Cloudy,0,2013-02-28 19:15:00